Location: Montréal
(45.5017°N, 73.5673°W)
Time: 04:18:42
(UTC-04:00)

ISS - Visible Passes

Search period start: 02 April 2023 00:00
Search period end: 12 April 2023 00:00
Orbit: 413 x 423 km, 51.6° (Epoch: 02 April)

Date Brightness Start Highest point End Pass type
(mag) Time Alt. Az. Time Alt. Az. Time Alt. Az.
02 Apr -1.3 20:48:29 10° W 20:50:43 17° SW 20:52:54 10° S visible
03 Apr -1.9 20:00:08 10° W 20:03:01 27° SW 20:05:52 10° SSE visible
05 Apr -0.7 20:02:45 10° WSW 20:03:31 11° SW 20:04:17 10° SW visible
